Flag for Thailand Weather past 2 weeks in Hat Yai, Thailand

Now
86 °F

Passing clouds.


Feels Like: 95 °F
Forecast: 75 / 92 °F
Wind: 7 mph from East

Location: Hat Yai Airport

Current Time: Apr 19, 2015 at 7:11:58 PM

Latest Report: Apr 19, 2015 at 6:30 PM


Visibility: N/A

Pressure: 29.80 "Hg

Humidity: 70%

Dew point: 75 °F

Location of Hat YaiLocation

Historic Weather in Hat Yai — Graph

°F

Hat Yai temperature yesterday

Maximum temperature yesterday: 97 °F (at 1:30 PM)
Minimum temperature yesterday: 75 °F (at 3:30 AM)
Average temperature yesterday: 83 °F

Past Weeks' High & Low Weather Summary

 TemperatureHumidityPressure
High99 °F (Apr 5, 1:00 PM)100% (Apr 7, 6:30 AM)29.98 "Hg (Apr 7, 6:30 AM)
Low72 °F (Apr 5, 5:00 AM)35% (Apr 5, 1:00 PM)29.62 "Hg (Apr 4, 5:00 PM)
Average84 °F75%29.82 "Hg
* Reported Apr 4 5:00 PM — Apr 19 5:30 PM, Hat Yai, Weather by CustomWeather, © 2015

Note: Actual official high and low records may vary slightly from our data, if they occured in-between our weather recording intervals... More about our weather records

Advertising

Hat Yai weather history for previous 24 hours

 ConditionsComfort  
Time TempWeatherWind HumidityBarometerVisibility
5:30 PM
Sun, Apr 19
90 °FPartly sunny.10 mph67%29.71 "HgN/A
5:00 PM91 °FPartly sunny.9 mph63%29.71 "HgN/A
4:30 PM91 °FPartly sunny.13 mph63%29.71 "HgN/A
4:00 PM93 °FPartly sunny.12 mph59%29.71 "HgN/A
3:30 PM93 °FPartly sunny.8 mph56%29.74 "HgN/A
3:00 PM93 °FPartly sunny.8 mph56%29.74 "HgN/A
2:30 PM93 °FPartly sunny.9 mph59%29.77 "HgN/A
2:00 PM91 °FPartly sunny.7 mph63%29.77 "HgN/A
1:30 PM93 °FBroken clouds.3 mph59%29.80 "HgN/A
1:00 PM91 °FBroken clouds.6 mph59%29.83 "HgN/A
12:30 PM93 °FBroken clouds.3 mph59%29.83 "HgN/A
12:00 PM91 °FBroken clouds.5 mph63%29.86 "HgN/A
11:30 AM90 °FBroken clouds.3 mph67%29.86 "HgN/A
11:00 AM90 °FBroken clouds.5 mph63%29.89 "HgN/A
10:30 AM88 °FBroken clouds.7 mph70%29.89 "HgN/A
10:00 AM88 °FPartly sunny.2 mph75%29.89 "HgN/A
9:30 AM86 °FPartly sunny.5 mph75%29.86 "HgN/A
9:00 AM84 °FScattered clouds.3 mph79%29.86 "HgN/A
8:30 AM82 °FScattered clouds.2 mph84%29.86 "HgN/A
8:00 AM81 °FScattered clouds.2 mph89%29.86 "HgN/A
7:30 AM79 °FScattered clouds.No wind89%29.83 "HgN/A
7:00 AM75 °FScattered clouds.2 mph100%29.80 "HgN/A
6:30 AM75 °FPartly sunny.2 mph94%29.80 "HgN/A
6:00 AM75 °FPassing clouds.2 mph94%29.80 "HgN/A
5:30 AM75 °FPassing clouds.No wind94%29.80 "HgN/A
4:30 AM75 °FPassing clouds.No wind94%29.77 "HgN/A
4:00 AM75 °FPassing clouds.No wind94%29.77 "HgN/A
3:30 AM75 °FPassing clouds.2 mph94%29.77 "HgN/A
3:00 AM75 °FPassing clouds.No wind94%29.77 "HgN/A
2:30 AM75 °FPassing clouds.3 mph94%29.80 "HgN/A
2:00 AM75 °FPassing clouds.2 mph94%29.80 "HgN/A
1:30 AM75 °FPassing clouds.2 mph94%29.80 "HgN/A
1:00 AM75 °FPassing clouds.2 mph94%29.80 "HgN/A
12:30 AM75 °FPassing clouds.2 mph94%29.83 "HgN/A
12:00 AM75 °FPartly cloudy.2 mph94%29.83 "HgN/A
11:30 PM
Sat, Apr 18
75 °FPartly cloudy.2 mph94%29.86 "HgN/A
11:00 PM75 °FPartly cloudy.3 mph94%29.86 "HgN/A
10:30 PM75 °FPartly cloudy.3 mph94%29.86 "HgN/A
10:00 PM75 °FPartly cloudy.2 mph94%29.83 "HgN/A
9:30 PM75 °FPartly cloudy.2 mph94%29.83 "HgN/A
9:00 PM75 °FPartly cloudy.No wind89%29.80 "HgN/A
8:30 PM75 °FThunderstorms. Partly cloudy.2 mph94%29.80 "HgN/A
8:00 PM77 °FThunderstorms. Partly cloudy.8 mph89%29.80 "Hg3 mi
7:30 PM79 °FThunderstorms. Partly cloudy.12 mph84%29.80 "HgN/A
7:00 PM86 °FThunderstorms. Partly cloudy.6 mph75%29.77 "HgN/A
Weather by CustomWeather, © 2015

See weather overviewHow to use our weather pages